Regional Weather Roundup
Issued by NWS

Home | Current Version | Previous Version | Graphics & Text | Print | Product List | Glossary On
Versions: 1 2 3 4 5 6 7 8 9 10 11 12 13 14 15 16 17 18 19 20 21 22 23 24 25 26 27 28 29 30 31 32 33 34 35 36 37 38 39 40 41 42 43 44 45 46 47 48 49 50
000
ASUS43 KMPX 201710
RWRMN
WEATHER ROUNDUP FOR MINNESOTA
NATIONAL WEATHER SERVICE TWIN CITIES/CHANHASSEN MN
1200 PM CDT SUN APR 20 2014


NOTE: "FAIR" INDICATES FEW OR NO CLOUDS BELOW 12,000 FEET WITH NO
SIGNIFICANT WEATHER AND/OR OBSTRUCTIONS TO VISIBILITY. N/A MEANS
CURRENT SKY AND/OR WEATHER CONDITIONS ARE NOT AVAILABLE.

MNZ060>063-068>070-201800-
   Twin Cities Metro

CITY           SKY/WX    TMP DP  RH WIND       PRES   REMARKS
TWIN CITIES    MOSUNNY   67  40  37 VRB7      30.03F
ST PAUL        SUNNY     67  41  38 SE6       30.03F
CRYSTAL        SUNNY     67  41  38 SE3       30.02F
BLAINE         SUNNY     68  45  42 SE6       30.03S
EDEN PRAIRIE   SUNNY     70  42  36 SE9       30.02S
LAKEVILLE      MOSUNNY   61  54  77 SE6       30.03F
SOUTH ST PAUL  SUNNY     67  49  51 S8        30.03S
LAKE ELMO      FAIR      64  45  48 SE5       30.04F
$$
MNZ001>005-007-008-013>017-022>024-027-028-201800-
   Northwest Minnesota

CITY           SKY/WX    TMP DP  RH WIND       PRES   REMARKS
BEMIDJI        SUNNY     59  32  35 SE7       30.02R
HALLOCK        CLOUDY    48  36  61 SE5       30.02S
ROSEAU         SUNNY     48  36  61 CALM      30.03S
WARROAD        SUNNY     48  37  66 S6        30.03S
THIEF RVR FALL SUNNY     54  36  50 S3        30.03S
CROOKSTON      SUNNY     55  37  50 S3        30.01F
FOSSTON        SUNNY     61  32  33 CALM      30.02S
DETROIT LAKES  SUNNY     63  32  31 S7        30.02S
MOORHEAD       SUNNY     61  43  51 S8        30.02S
PARK RAPIDS    SUNNY     61  29  29 CALM      30.02S
$$
MNZ006-009>011-018-025>026-201800-
   North Central Minnesota

CITY           SKY/WX    TMP DP  RH WIND       PRES   REMARKS
BAUDETTE       SUNNY     49  35  58 VRB5      30.03F
FLAG ISLAND    SUNNY     37  30  75 SE7       30.02S
INTL FALLS     SUNNY     50  33  52 NW6       30.03S
WASKISH        SUNNY     52  36  54 W6        30.03S
BIG FORK       SUNNY     59  34  38 CALM      30.02F
LONGVILLE      SUNNY     63  30  29 CALM      30.02F
GRAND RAPIDS   SUNNY     57  34  41 CALM      30.04S
CRANE LAKE     SUNNY     54  45  71 N5        30.05S
ORR            SUNNY     52  30  43 NW3       30.01S
COOK           SUNNY     54  36  50 S3        30.03S
$$
MNZ012-019>021-037-201800-
   Northeast Minnesota

CITY           SKY/WX    TMP DP  RH WIND       PRES   REMARKS
DULUTH         SUNNY     57  34  41 N7        30.04R
ELY            SUNNY     54  27  35 NW3       30.03S
HIBBING        SUNNY     59  33  37 N5        30.03S
EVELETH        SUNNY     55  32  41 CALM      30.04S
DULUTH HARBOR  SUNNY     45  37  76 CALM      30.05S
TWO HARBORS    SUNNY     54  37  54 S6        30.02S
SILVER BAY     SUNNY     52  39  62 S5        30.01S
GRAND MARAIS     N/A     39  33  79 SW9       30.03S
G MARAIS ARPRT SUNNY     55  27  33 SW5       30.02R
$$
MNZ029>031-032-039>041-046>048-054>057-064-201800-
   West Central Minnesota

CITY           SKY/WX    TMP DP  RH WIND       PRES   REMARKS
FERGUS FALLS   SUNNY     64  28  25 S9        29.98F
WHEATON        SUNNY     70  41  35 SE10      30.03S
MORRIS         SUNNY     66  37  34 SE13      30.01F
ALEXANDRIA     SUNNY     64  39  39 SE8       30.03S
ELBOW LAKE     FAIR      65  35  32 SE9       30.01F
WADENA         SUNNY     63  34  34 SE8       30.02S
GLENWOOD       SUNNY     66  39  37 E8        30.03F
APPLETON       SUNNY     66  37  34 SE9       30.01S
BENSON         SUNNY     66  37  34 SE7       30.02F
ORTONVILLE     SUNNY     63  36  36 SE6       30.02S
MADISON        SUNNY     66  39  37 SE7       30.02S
WILLMAR        FAIR      64  41  42 E8        30.04F
$$
MNZ033>034-036-042>043-049>051-058-059-201800-
   Central Minnesota

CITY           SKY/WX    TMP DP  RH WIND       PRES   REMARKS
ST CLOUD       SUNNY     64  38  38 VRB5      30.04S
SAUK CENTRE    FAIR      63  38  39 E7        30.04S
PAYNESVILLE    SUNNY     61  36  39 CALM      30.04F
AITKIN         SUNNY     63  34  34 CALM      30.03S
PINE RIVER     SUNNY     61  36  39 E5        30.06F
BRAINERD       SUNNY     66  29  24 CALM      30.04F
STAPLES        SUNNY     63  30  29 S7        30.03S
LONG PRAIRIE   FAIR      63  37  39 CALM      30.04S
LITTLE FALLS   SUNNY     63  34  34 E5        30.04S
LITCHFIELD     SUNNY     64  39  39 E3        30.04S
BUFFALO        SUNNY     62  42  48 NE5       30.04F
MAPLE LAKE     SUNNY     63  46  53 CALM      30.05S
$$
MNZ037-044-045-052-053-201800-
   East Central Minnesota

CITY           SKY/WX    TMP DP  RH WIND       PRES   REMARKS
PRINCETON      SUNNY     63  39  42 N3        30.05S
MORA           SUNNY     59  41  51 CALM      30.06F
CAMBRIDGE      SUNNY     61  43  51 NE3       30.03S
RUSH CITY      SUNNY     57  42  58 CALM      30.05S
MOOSE LAKE     SUNNY     59  34  38 CALM      30.03S
HINCKLEY       FAIR      55  41  58 CALM      30.05S
CLOQUET        SUNNY     59  32  36 W8        30.04S
MCGREGOR       SUNNY     59  32  36 CALM      30.04F
$$
MNZ071>073-080-081-089-090-097-098-201800-
   Southwest Minnesota

CITY           SKY/WX    TMP DP  RH WIND       PRES   REMARKS
MONTEVIDEO     SUNNY     66  45  45 S9        30.02F
GRANITE FALLS  SUNNY     64  41  42 SE6       30.04S
CANBY          SUNNY     60  41  48 SE3       30.03F
MARSHALL       SUNNY     64  41  42 E5        30.02S
REDWOOD FALLS  SUNNY     70  39  32 E9        30.01F
OLIVIA         SUNNY     63  43  48 E6        30.02S
PIPESTONE      SUNNY     70  25  18 E15       30.00S
WINDOM         SUNNY     72  32  23 NE15      30.01S
WORTHINGTON    SUNNY     68  36  30 E14       30.03F
JACKSON        MOSUNNY   68  45  42 E7        30.02R
TRACY          SUNNY     69  37  31 E6        30.01S
SLAYTON        SUNNY     69  29  22 E14       30.02S
$$
MNZ065>067-074>077-082>085-091>093-201800-
   South Central Minnesota

CITY           SKY/WX    TMP DP  RH WIND       PRES   REMARKS
MANKATO        MOSUNNY   63  54  72 NE8       30.01F
NEW ULM        SUNNY     66  43  42 E9        30.00F
ST JAMES       MOSUNNY   66  48  52 NE8       30.02S
FAIRMONT       MOSUNNY   63  52  67 S7        30.04S
GLENCOE        SUNNY     69  39  33 E6        30.02F
FARIBAULT      CLOUDY    64  48  55 CALM      30.03F
OWATONNA       CLOUDY    59  52  77 SE5       30.03F
WASECA         PTSUNNY   61  54  77 E6        30.04F
ALBERT LEA     LGT RAIN  57  55  94 S6        30.03R
$$
MNZ078>079-086>088-094>096-201800-
   Southeast Minnesota

CITY           SKY/WX    TMP DP  RH WIND       PRES   REMARKS
ROCHESTER      LGT RAIN  55  52  89 S6        30.06F FOG
RED WING       PTSUNNY   63  50  63 S5        30.03F
STANTON        PTSUNNY   63  51  66 CALM      30.02F
DODGE CENTER   CLOUDY    57  55  94 S9        30.05S
WINONA           N/A    N/A N/A N/A MISG        N/A
AUSTIN         CLOUDY    55  54  94 SE3       30.03F
PRESTON        CLOUDY    54  52  95 S12G17    30.08S FOG
$$
ABBREVIATIONS USED IN REMARKS
   TC - TEMPERATURES IN CELSIUS
  WCI - WIND CHILL INDEX
   HX - HEAT INDEX
  VSB - VISIBILITY
$$



USA.gov is the U.S. government's official web portal to all federal, state and local government web resources and services.